Torna al catalogo

STARLINK-36170

AttivoComunicazioniVLEO
NORAD 67083·PAYLOAD·🇺🇸 United States

Lanciato Dec 14, 2025 da Vandenberg Space Force Base

Loading…

Prossimi Passaggi (prossime 24 ore)

TLE

AggiornatoSource: CelesTrak SupGP

Epoca: Sep 14, 2026, 22:43 UTC

1 67083C 25298J   26257.94701389  .00046051  00000+0  38583-2 0  2574
2 67083  69.9998 257.3400 0003840 266.2908 121.6097 14.98314078    17

Traccia STARLINK-36170 in tempo reale con AllMySat

Download on the App Store